カタログに戻る

STARLINK-2608

運用中通信VLEO
NORAD 48365·PAYLOAD·🇺🇸 United States

打ち上げ May 4, 2021 から Cape Canaveral Space Force Station

Loading…

次のパス (今後24時間)

TLE

最新Source: CelesTrak SupGP

元期: Sep 15, 2026, 01:44 UTC

1 48365C 21038N   26258.07270833 -.00008577  00000+0 -27583-3 0  2587
2 48365  53.1578 186.5100 0001345  86.2690 209.7006 15.31702312    12

AllMySatでSTARLINK-2608をリアルタイム追跡

Download on the App Store